CXO

Last updated on Mon Sep 15 2025 00:03:34 GMT+0000 (Coordinated Universal Time)

1 25867U 99040B 25259.35019206 .00000941 00000+0 00000+0 0 9991 2 25867 51.3649 125.8051 8285649 310.4265 0.3581 0.37804868 16281
UTC large
Height (km)
Speed (km/s)
/
Latitude / Longitude
Inclination (degrees)
Orbital Period (minutes)
Azimuth
Elevation
Range (km)
Doppler Factor

Next 0 passes for location: London (51.5072 / 0.1276)

Sorry there are no passes over London.